This demonstration page uses our WeatherBlox Daily Observations layout. Learn more.

Left ArrowRight Arrow

41.86663, -103.66717

Hourly Observations for August 22, 2018

Temp ( °F °C ) Dew Point ( °F °C ) Humidity (%) Winds ( mph kmh ) Pressure ( in mb ) Visibility ( mi km ) Precip ( " mm )
12:10 am 00:10 Cloudy 58 14.4 56 13.3 93 93 ESE 8 13 30.21 1023 7 11 0.00 0.00
12:53 am 00:53 Cloudy 58 14.4 56 13.3 93 93 ESE 10 17 30.22 1023 8 13 0.00 0.00
1:53 am 01:53 Mostly Cloudy 57 13.9 56 13.3 96 96 ESE 9 15 30.21 1023 9 14 0.00 0.00
2:53 am 02:53 Clear 55 12.8 55 12.8 100 100 ESE 10 17 30.19 1022 9 14 0.00 0.00
3:53 am 03:53 Mostly Cloudy 55 12.8 55 12.8 100 100 ESE 7 11 30.19 1023 8 13 0.00 0.00
4:53 am 04:53 Clear 54 12.2 54 12.2 100 100 E 8 13 30.19 1023 7 11 0.00 0.00
5:53 am 05:53 Cloudy 54 12.2 54 12.2 100 100 ESE 7 11 30.20 1023 7 11 0.00 0.00
6:06 am 06:06 Cloudy 54 12 54 12 100 100 E 8 13 30.24 1024 7 11 0.00 0.00
6:53 am 06:53 Cloudy 55 12.8 55 12.8 100 100 ESE 10 17 30.21 1023 7 11 0.00 0.00
7:53 am 07:53 Cloudy 57 13.9 56 13.3 96 96 ESE 12 19 30.21 1023 7 11 0.00 0.00
8:53 am 08:53 Cloudy 58 14.4 56 13.3 93 93 ESE 10 17 30.23 1024 8 13 0.00 0.00
9:44 am 09:44 Cloudy 59 15 55 13 88 88 ESE 10 17 30.18 1022 8 13 0.00 0.00
9:53 am 09:53 Cloudy 59 15 57 13.9 93 93 ESE 10 17 30.22 1023 8 13 0.00 0.00
10:53 am 10:53 Cloudy 62 16.7 58 14.4 86 86 SE 9 15 30.21 1023 8 13 0.00 0.00
11:53 am 11:53 Cloudy 63 17.2 59 15 87 87 SE 13 20 30.17 1022 7 11 0.00 0.00
12:44 pm 12:44 Cloudy 64 18 59 15 83 83 SSE 13 20 30.06 1018 7 11 0.00 0.00
12:53 pm 12:53 Cloudy 66 18.9 60 15.6 81 81 SSE 12 19 30.14 1021 7 11 0.00 0.00
1:53 pm 13:53 Cloudy 69 20.6 61 16.1 76 76 SSE 14 22 30.10 1019 8 13 0.00 0.00
2:39 pm 14:39 Partly Cloudy 74 23.3 62 16.7 67 67 SE 12 19 29.94 1014 10 16 0.00 0.00
2:53 pm 14:53 Mostly Sunny 76 24.4 62 16.7 62 62 SSE 16 26 30.06 1018 10 16 0.00 0.00
3:53 pm 15:53 Sunny 78 25.6 62 16.7 58 58 SE 15 24 30.01 1016 10 16 0.00 0.00
4:53 pm 16:53 Sunny 79 26.1 62 16.7 56 56 SE 17 28 29.97 1015 10 16 0.00 0.00
5:53 pm 17:53 Sunny 77 25 63 17.2 62 62 SE 20 31 29.97 1015 10 16 0.00 0.00
6:53 pm 18:53 Sunny 71 21.7 63 17.2 76 76 ESE 16 26 29.97 1015 10 16 0.00 0.00
7:53 pm 19:53 Clear 66 18.9 63 17.2 90 90 ESE 17 28 29.96 1015 9 14 0.00 0.00
8:53 pm 20:53 Clear 64 17.8 63 17.2 96 96 ESE 14 22 29.97 1015 8 13 0.00 0.00
9:53 pm 21:53 Clear 63 17.2 63 17.2 100 100 ESE 12 19 30.02 1017 7 11 0.00 0.00
10:53 pm 22:53 Clear with Mist and Fog 62 16.7 62 16.7 100 100 E 10 17 30.00 1016 6 10 0.00 0.00
11:53 pm 23:53 Mostly Cloudy with Light Rain 62 16.7 62 16.7 100 100 ESE 7 11 29.98 1015 6 10 0.00 0.03

Powered by AerisWeather